QPF
0.02 0.01 0.02 0.02 0.02 0.01 0.01 0.01 0.01 0.01 0.01 0.01 0.01 0.01 0.01 0.01 0.01 0.01 0.01 0.01 0.01 0.01 0.01 0.01 0.01 0.01 0.01 0.02 0.02 0.03 0.03 0.03 0.04 0.04 0.03 0.03 0.05 0.07
0.02 0.01 0.01 0.01 0.01 0.01 0.01 0.01 0.01 0.02 0.01 0.01 0.01 0.01 0.01 0.01 0.01 0.01 0.01 0.02 0.02 0.02 0.01 0.01 0.01 0.01 0.01 0.02 0.02 0.02 0.03 0.04 0.06 0.05 0.03 0.04 0.05 0.07
0.02 0.02 0.02 0.02 0.02 0.02 0.02 0.02 0.02 0.02 0.02 0.01 0.01 0.01 0.01 0.01 0.01 0.01 0.01 0.01 0.02 0.03 0.02 0.02 0.02 0.02 0.02 0.02 0.02 0.02 0.02 0.04 0.06 0.04 0.04 0.04 0.05 0.06
0.02 0.02 0.02 0.02 0.02 0.03 0.02 0.02 0.02 0.01 0.02 0.01 0.01 0.01 0.01 0.01 0.01 0.01 0.01 0.01 0.01 0.02 0.02 0.03 0.04 0.03 0.03 0.02 0.03 0.03 0.03 0.04 0.04 0.03 0.04 0.04 0.05 0.04
0.02 0.02 0.02 0.02 0.02 0.02 0.02 0.02 0.01 0.01 0.01 0.01 0.01 0.01 0.01 0.00 0.00 0.00 0.00 0.00 0.01 0.01 0.02 0.03 0.04 0.04 0.04 0.03 0.03 0.03 0.03 0.03 0.02 0.03 0.03 0.03 0.02 0.02
0.02 0.02 0.02 0.02 0.02 0.02 0.02 0.02 0.02 0.01 0.01 0.01 0.01 0.01 0.00 0.00 0.00 0.00 0.00 0.01 0.01 0.01 0.02 0.02 0.03 0.03 0.03 0.03 0.03 0.03 0.03 0.02 0.02 0.02 0.01 0.01 0.01 0.01
0.02 0.02 0.02 0.02 0.02 0.02 0.02 0.02 0.02 0.02 0.02 0.01 0.01 0.01 0.00 0.00 0.00 0.00 0.00 0.00 0.01 0.02 0.02 0.02 0.02 0.02 0.02 0.02 0.02 0.01 0.01 0.01 0.01 0.01 0.01 0.01 0.01 0.01
0.01 0.02 0.02 0.03 0.03 0.02 0.02 0.02 0.01 0.01 0.01 0.01 0.01 0.00 0.00 0.00 0.00 0.00 0.00 0.00 0.01 0.01 0.02 0.03 0.03 0.02 0.02 0.02 0.02 0.01 0.01 0.01 0.01 0.01 0.01 0.01 0.01 0.01
0.02 0.02 0.02 0.02 0.03 0.02 0.02 0.02 0.01 0.01 0.01 0.01 0.01 0.00 0.00 0.00 0.00 0.00 0.00 0.00 0.01 0.01 0.01 0.02 0.02 0.03 0.02 0.02 0.03 0.02 0.02 0.02 0.01 0.01 0.01 0.01 0.01 0.01
0.01 0.02 0.02 0.02 0.02 0.03 0.03 0.02 0.02 0.01 0.01 0.01 0.01 0.01 0.00 0.00 0.00 0.00 0.00 0.00 0.00 0.01 0.01 0.02 0.02 0.02 0.03 0.03 0.03 0.02 0.02 0.01 0.01 0.01 0.01 0.01 0.00 0.01
0.02 0.02 0.03 0.03 0.03 0.02 0.03 0.03 0.02 0.01 0.02 0.02 0.01 0.01 0.01 0.00 0.01 0.01 0.01 0.01 0.01 0.00 0.01 0.01 0.02 0.02 0.02 0.02 0.02 0.02 0.01 0.01 0.01 0.01 0.01 0.01 0.00 0.00
0.02 0.02 0.03 0.03 0.03 0.03 0.03 0.03 0.02 0.01 0.01 0.01 0.01 0.01 0.00 0.00 0.00 0.01 0.01 0.01 0.01 0.01 0.00 0.01 0.01 0.02 0.02 0.01 0.01 0.01 0.01 0.01 0.01 0.01 0.01 0.01 0.01 0.01
0.01 0.02 0.02 0.03 0.04 0.04 0.03 0.03 0.02 0.02 0.02 0.02 0.01 0.01 0.00 0.00 0.00 0.00 0.00 0.01 0.02 0.01 0.01 0.01 0.01 0.01 0.01 0.01 0.01 0.01 0.01 0.01 0.01 0.01 0.01 0.01 0.01 0.01
0.02 0.02 0.02 0.03 0.03 0.03 0.03 0.02 0.02 0.02 0.02 0.03 0.02 0.01 0.01 0.00 0.00 0.00 0.00 0.01 0.01 0.01 0.01 0.01 0.01 0.01 0.01 0.01 0.01 0.01 0.01 0.01 0.01 0.01 0.01 0.01 0.01 0.01
0.02 0.02 0.02 0.02 0.02 0.02 0.03 0.02 0.02 0.02 0.02 0.02 0.02 0.02 0.01 0.01 0.01 0.01 0.00 0.00 0.01 0.01 0.01 0.01 0.01 0.01 0.01 0.02 0.01 0.01 0.01 0.01 0.01 0.01 0.01 0.01 0.01 0.02
0.02 0.02 0.02 0.02 0.02 0.02 0.02 0.02 0.02 0.02 0.02 0.01 0.01 0.01 0.01 0.01 0.01 0.01 0.01 0.00 0.01 0.00 0.00 0.00 0.00 0.01 0.01 0.01 0.01 0.01 0.01 0.01 0.01 0.01 0.00 0.00 0.01 0.01
0.02 0.02 0.01 0.01 0.01 0.01 0.02 0.02 0.02 0.01 0.01 0.01 0.01 0.01 0.01 0.01 0.01 0.01 0.00 0.00 0.01 0.00 0.00 0.00 0.00 0.01 0.01 0.01 0.01 0.01 0.01 0.01 0.01 0.01 0.01 0.01 0.01 0.01
0.01 0.01 0.01 0.01 0.01 0.01 0.02 0.01 0.01 0.01 0.01 0.01 0.01 0.01 0.01 0.01 0.01 0.01 0.01 0.00 0.01 0.00 0.00 0.00 0.00 0.01 0.01 0.01 0.01 0.01 0.00 0.01 0.01 0.01 0.01 0.01 0.01 0.01
0.01 0.01 0.01 0.01 0.01 0.01 0.02 0.02 0.02 0.01 0.01 0.01 0.01 0.01 0.01 0.01 0.01 0.01 0.01 0.01 0.01 0.00 0.00 0.00 0.00 0.01 0.02 0.01 0.00 0.00 0.00 0.01 0.01 0.00 0.00 0.01 0.01 0.01
0.01 0.01 0.01 0.01 0.01 0.02 0.02 0.02 0.02 0.02 0.02 0.02 0.01 0.01 0.01 0.01 0.01 0.01 0.01 0.01 0.01 0.01 0.00 0.00 0.00 0.01 0.02 0.02 0.01 0.00 0.00 0.01 0.01 0.01 0.00 0.00 0.01 0.01
0.01 0.01 0.01 0.01 0.01 0.01 0.02 0.02 0.03 0.02 0.02 0.02 0.02 0.01 0.01 0.01 0.01 0.01 0.01 0.01 0.01 0.01 0.01 0.00 0.00 0.00 0.01 0.01 0.01 0.00 0.00 0.00 0.01 0.01 0.01 0.01 0.01 0.01
0.01 0.01 0.01 0.01 0.01 0.01 0.02 0.02 0.03 0.03 0.03 0.02 0.02 0.01 0.01 0.01 0.01 0.01 0.01 0.01 0.01 0.00 0.00 0.00 0.00 0.00 0.01 0.01 0.01 0.01 0.00 0.00 0.00 0.00 0.00 0.01 0.02 0.02
0.01 0.02 0.02 0.02 0.02 0.02 0.02 0.02 0.02 0.03 0.03 0.03 0.02 0.02 0.01 0.01 0.01 0.01 0.01 0.01 0.01 0.00 0.00 0.00 0.00 0.00 0.00 0.01 0.01 0.01 0.00 0.00 0.00 0.00 0.00 0.01 0.01 0.02
MSLP
1023.22 1023.30 1023.32 1023.29 1023.20 1023.04 1022.83 1022.57 1022.27 1021.93 1021.56 1021.16 1020.72 1020.26 1019.77 1019.28 1018.80 1018.38 1018.03 1017.81 1017.72 1017.80 1018.03 1018.42 1018.93 1019.54 1020.21 1020.92 1021.63 1022.31 1022.95 1023.54 1024.07 1024.55 1024.96 1025.30 1025.58 1025.81
1023.29 1023.41 1023.48 1023.49 1023.44 1023.33 1023.17 1022.96 1022.71 1022.43 1022.10 1021.73 1021.30 1020.82 1020.28 1019.72 1019.15 1018.61 1018.14 1017.77 1017.56 1017.52 1017.65 1017.96 1018.41 1019.00 1019.67 1020.39 1021.14 1021.87 1022.58 1023.23 1023.83 1024.37 1024.83 1025.23 1025.54 1025.79
1023.20 1023.35 1023.45 1023.50 1023.49 1023.43 1023.32 1023.18 1023.00 1022.79 1022.52 1022.20 1021.81 1021.34 1020.79 1020.18 1019.54 1018.91 1018.34 1017.86 1017.53 1017.37 1017.40 1017.62 1018.02 1018.56 1019.21 1019.94 1020.71 1021.49 1022.25 1022.97 1023.63 1024.23 1024.75 1025.19 1025.54 1025.82
1022.96 1023.14 1023.27 1023.34 1023.37 1023.36 1023.32 1023.24 1023.14 1023.01 1022.82 1022.57 1022.23 1021.80 1021.27 1020.65 1019.98 1019.29 1018.64 1018.08 1017.65 1017.40 1017.34 1017.47 1017.80 1018.29 1018.91 1019.63 1020.41 1021.21 1022.01 1022.78 1023.50 1024.15 1024.73 1025.21 1025.60 1025.90
1022.59 1022.79 1022.95 1023.05 1023.12 1023.16 1023.18 1023.17 1023.15 1023.10 1023.00 1022.83 1022.56 1022.18 1021.69 1021.10 1020.43 1019.73 1019.05 1018.43 1017.95 1017.62 1017.48 1017.55 1017.80 1018.24 1018.82 1019.51 1020.27 1021.08 1021.90 1022.70 1023.46 1024.16 1024.77 1025.29 1025.71 1026.04
1022.12 1022.34 1022.52 1022.66 1022.76 1022.85 1022.92 1022.99 1023.04 1023.07 1023.05 1022.96 1022.77 1022.47 1022.04 1021.51 1020.88 1020.21 1019.53 1018.91 1018.40 1018.04 1017.85 1017.86 1018.05 1018.43 1018.95 1019.59 1020.33 1021.11 1021.92 1022.73 1023.50 1024.22 1024.86 1025.41 1025.86 1026.20
1021.56 1021.79 1022.00 1022.16 1022.31 1022.44 1022.56 1022.68 1022.80 1022.90 1022.96 1022.95 1022.85 1022.63 1022.29 1021.83 1021.29 1020.68 1020.06 1019.48 1018.98 1018.62 1018.41 1018.38 1018.52 1018.83 1019.29 1019.87 1020.54 1021.28 1022.05 1022.83 1023.59 1024.31 1024.96 1025.52 1025.99 1026.35
1020.92 1021.17 1021.39 1021.59 1021.76 1021.93 1022.10 1022.27 1022.44 1022.60 1022.72 1022.79 1022.77 1022.64 1022.40 1022.05 1021.60 1021.10 1020.57 1020.06 1019.63 1019.30 1019.10 1019.05 1019.16 1019.41 1019.79 1020.29 1020.88 1021.54 1022.25 1022.97 1023.69 1024.38 1025.01 1025.57 1026.05 1026.42
1020.21 1020.47 1020.71 1020.93 1021.13 1021.33 1021.53 1021.74 1021.95 1022.16 1022.34 1022.47 1022.53 1022.49 1022.36 1022.12 1021.80 1021.42 1021.01 1020.62 1020.27 1020.00 1019.84 1019.79 1019.87 1020.07 1020.38 1020.79 1021.28 1021.84 1022.45 1023.09 1023.74 1024.37 1024.98 1025.52 1025.99 1026.37
1019.44 1019.70 1019.95 1020.19 1020.41 1020.63 1020.86 1021.10 1021.35 1021.59 1021.82 1022.01 1022.14 1022.19 1022.17 1022.05 1021.87 1021.62 1021.35 1021.08 1020.84 1020.65 1020.54 1020.51 1020.58 1020.73 1020.96 1021.28 1021.66 1022.11 1022.61 1023.15 1023.71 1024.27 1024.83 1025.34 1025.80 1026.19
1018.61 1018.87 1019.13 1019.38 1019.62 1019.86 1020.11 1020.38 1020.65 1020.93 1021.19 1021.44 1021.63 1021.78 1021.85 1021.86 1021.80 1021.70 1021.56 1021.42 1021.29 1021.19 1021.14 1021.14 1021.20 1021.31 1021.48 1021.70 1021.98 1022.31 1022.70 1023.12 1023.59 1024.07 1024.56 1025.04 1025.48 1025.87
1017.74 1018.01 1018.27 1018.53 1018.79 1019.05 1019.32 1019.60 1019.90 1020.21 1020.52 1020.81 1021.07 1021.29 1021.46 1021.57 1021.63 1021.66 1021.65 1021.62 1021.60 1021.59 1021.59 1021.62 1021.68 1021.76 1021.88 1022.03 1022.21 1022.44 1022.71 1023.03 1023.39 1023.79 1024.22 1024.65 1025.07 1025.46
1016.86 1017.13 1017.40 1017.67 1017.94 1018.22 1018.51 1018.82 1019.15 1019.49 1019.84 1020.18 1020.50 1020.79 1021.03 1021.24 1021.40 1021.52 1021.62 1021.69 1021.76 1021.82 1021.88 1021.94 1022.00 1022.07 1022.14 1022.23 1022.34 1022.48 1022.66 1022.88 1023.16 1023.48 1023.84 1024.22 1024.61 1024.98
1015.98 1016.26 1016.53 1016.82 1017.11 1017.41 1017.73 1018.07 1018.43 1018.81 1019.20 1019.58 1019.95 1020.30 1020.61 1020.89 1021.13 1021.33 1021.50 1021.65 1021.78 1021.89 1021.99 1022.08 1022.16 1022.22 1022.27 1022.32 1022.38 1022.46 1022.57 1022.72 1022.92 1023.16 1023.46 1023.78 1024.13 1024.47
1015.12 1015.40 1015.70 1016.00 1016.32 1016.65 1017.00 1017.38 1017.77 1018.19 1018.62 1019.05 1019.46 1019.85 1020.22 1020.54 1020.83 1021.08 1021.31 1021.50 1021.68 1021.83 1021.96 1022.08 1022.17 1022.24 1022.29 1022.33 1022.36 1022.40 1022.46 1022.55 1022.69 1022.87 1023.10 1023.36 1023.65 1023.95
1014.27 1014.58 1014.90 1015.23 1015.57 1015.93 1016.32 1016.73 1017.17 1017.63 1018.09 1018.56 1019.01 1019.44 1019.83 1020.19 1020.51 1020.79 1021.04 1021.27 1021.47 1021.65 1021.80 1021.94 1022.06 1022.14 1022.21 1022.25 1022.28 1022.31 1022.34 1022.40 1022.48 1022.60 1022.76 1022.96 1023.18 1023.42
1013.44 1013.78 1014.13 1014.48 1014.86 1015.26 1015.68 1016.13 1016.60 1017.10 1017.60 1018.09 1018.57 1019.02 1019.44 1019.81 1020.14 1020.44 1020.70 1020.94 1021.15 1021.35 1021.54 1021.70 1021.84 1021.95 1022.04 1022.11 1022.15 1022.18 1022.21 1022.24 1022.28 1022.35 1022.45 1022.57 1022.71 1022.87
1012.61 1012.98 1013.36 1013.75 1014.16 1014.59 1015.05 1015.53 1016.04 1016.56 1017.09 1017.60 1018.10 1018.56 1018.99 1019.37 1019.70 1020.00 1020.27 1020.52 1020.75 1020.96 1021.17 1021.35 1021.53 1021.67 1021.80 1021.89 1021.96 1022.00 1022.03 1022.05 1022.06 1022.08 1022.12 1022.17 1022.23 1022.32
1011.77 1012.18 1012.59 1013.02 1013.46 1013.92 1014.41 1014.92 1015.45 1015.99 1016.52 1017.05 1017.55 1018.02 1018.45 1018.83 1019.17 1019.47 1019.75 1020.00 1020.25 1020.48 1020.71 1020.93 1021.13 1021.31 1021.47 1021.60 1021.69 1021.75 1021.79 1021.79 1021.79 1021.77 1021.76 1021.75 1021.74 1021.75
1010.91 1011.35 1011.80 1012.26 1012.73 1013.22 1013.73 1014.26 1014.80 1015.35 1015.89 1016.41 1016.91 1017.38 1017.80 1018.18 1018.53 1018.84 1019.13 1019.40 1019.66 1019.92 1020.17 1020.42 1020.65 1020.87 1021.06 1021.21 1021.33 1021.41 1021.45 1021.46 1021.44 1021.40 1021.35 1021.30 1021.25 1021.20
1010.05 1010.52 1011.00 1011.49 1011.98 1012.50 1013.02 1013.55 1014.09 1014.63 1015.17 1015.68 1016.17 1016.63 1017.05 1017.43 1017.78 1018.11 1018.42 1018.71 1019.00 1019.29 1019.57 1019.84 1020.10 1020.34 1020.55 1020.72 1020.85 1020.95 1021.00 1021.01 1021.00 1020.96 1020.90 1020.83 1020.76 1020.69
1009.17 1009.67 1010.18 1010.70 1011.21 1011.74 1012.27 1012.80 1013.33 1013.86 1014.37 1014.87 1015.34 1015.79 1016.21 1016.60 1016.96 1017.31 1017.64 1017.97 1018.28 1018.60 1018.90 1019.19 1019.47 1019.72 1019.94 1020.12 1020.27 1020.37 1020.43 1020.46 1020.46 1020.44 1020.40 1020.35 1020.29 1020.24
1008.31 1008.83 1009.36 1009.90 1010.43 1010.96 1011.49 1012.01 1012.53 1013.04 1013.53 1014.00 1014.46 1014.90 1015.32 1015.72 1016.10 1016.47 1016.83 1017.19 1017.54 1017.87 1018.20 1018.50 1018.78 1019.04 1019.25 1019.43 1019.58 1019.69 1019.76 1019.81 1019.84 1019.86 1019.87 1019.86 1019.86 1019.85
Thickness
5530 5529 5528 5528 5527 5526 5524 5522 5518 5515 5516 5515 5513 5512 5510 5509 5508 5507 5506 5505 5505 5504 5504 5504 5503 5502 5502 5501 5500 5499 5499 5498 5497 5497 5496 5497 5497 5497
5521 5520 5519 5519 5517 5516 5515 5512 5510 5507 5505 5505 5503 5501 5500 5499 5498 5497 5496 5495 5494 5494 5494 5493 5493 5492 5492 5491 5491 5490 5489 5489 5488 5487 5487 5487 5488 5489
5511 5511 5510 5509 5508 5506 5505 5503 5500 5497 5494 5494 5492 5491 5489 5488 5487 5486 5485 5485 5484 5484 5483 5483 5483 5482 5482 5481 5480 5480 5480 5479 5478 5478 5477 5478 5478 5479
5503 5501 5501 5500 5498 5496 5494 5493 5490 5488 5485 5483 5482 5480 5479 5478 5476 5475 5475 5475 5474 5474 5474 5473 5473 5473 5472 5471 5471 5471 5470 5470 5469 5468 5468 5468 5468 5469
5493 5492 5492 5490 5488 5487 5485 5483 5481 5479 5476 5473 5471 5469 5468 5467 5465 5465 5465 5464 5464 5464 5464 5464 5463 5463 5463 5462 5462 5461 5461 5460 5459 5459 5458 5458 5458 5459
5484 5484 5482 5481 5480 5478 5476 5473 5470 5468 5465 5463 5462 5459 5457 5455 5453 5453 5454 5453 5454 5454 5454 5454 5454 5454 5454 5453 5452 5451 5451 5450 5450 5449 5449 5449 5449 5449
5474 5474 5473 5472 5471 5469 5467 5464 5460 5457 5455 5453 5452 5449 5446 5444 5442 5442 5441 5441 5442 5443 5443 5444 5444 5444 5444 5443 5442 5441 5441 5440 5440 5440 5440 5440 5440 5440
5465 5463 5462 5461 5460 5460 5458 5455 5452 5449 5446 5443 5441 5439 5438 5435 5433 5432 5430 5429 5431 5432 5431 5432 5433 5433 5433 5433 5432 5432 5432 5431 5431 5430 5431 5431 5431 5431
5455 5453 5452 5451 5450 5448 5447 5444 5442 5441 5440 5437 5434 5432 5430 5428 5425 5423 5421 5420 5420 5421 5419 5421 5422 5422 5423 5423 5423 5423 5422 5422 5421 5421 5421 5421 5422 5422
5446 5444 5442 5441 5440 5438 5436 5434 5433 5431 5430 5428 5427 5425 5423 5421 5419 5416 5414 5411 5411 5411 5410 5410 5411 5412 5414 5414 5414 5413 5413 5412 5412 5412 5412 5412 5412 5413
5436 5434 5432 5431 5431 5429 5427 5425 5423 5421 5420 5419 5418 5417 5415 5413 5411 5407 5404 5403 5402 5402 5400 5399 5400 5401 5403 5404 5404 5404 5403 5403 5403 5403 5403 5403 5403 5404
5426 5424 5424 5423 5422 5420 5418 5416 5413 5412 5410 5409 5408 5407 5406 5404 5402 5400 5397 5394 5392 5392 5392 5390 5389 5389 5392 5395 5395 5394 5394 5394 5394 5394 5394 5395 5395 5395
5417 5415 5415 5415 5413 5412 5410 5408 5407 5404 5401 5400 5398 5397 5396 5394 5393 5391 5389 5387 5385 5384 5383 5381 5380 5379 5378 5382 5385 5386 5385 5385 5385 5386 5386 5386 5387 5386
5409 5407 5406 5405 5404 5403 5401 5400 5398 5396 5393 5391 5389 5387 5387 5385 5384 5383 5381 5380 5379 5378 5376 5374 5372 5371 5370 5371 5374 5377 5377 5376 5376 5377 5378 5378 5379 5378
5400 5399 5398 5397 5396 5394 5393 5391 5389 5386 5384 5382 5380 5379 5379 5377 5376 5375 5373 5373 5372 5371 5369 5368 5366 5364 5362 5363 5364 5366 5367 5368 5368 5369 5370 5370 5371 5371
5391 5391 5390 5388 5387 5386 5384 5382 5380 5378 5376 5375 5373 5371 5370 5369 5368 5367 5366 5365 5364 5363 5362 5361 5359 5358 5357 5357 5356 5357 5357 5358 5360 5361 5361 5363 5364 5364
5383 5382 5380 5378 5377 5376 5375 5373 5371 5369 5368 5367 5365 5363 5362 5361 5360 5359 5359 5358 5356 5355 5354 5353 5352 5352 5352 5351 5350 5351 5350 5351 5352 5352 5354 5356 5358 5357
5377 5375 5373 5371 5370 5369 5367 5365 5363 5362 5360 5359 5357 5356 5355 5354 5354 5353 5352 5351 5349 5348 5346 5345 5345 5345 5345 5345 5345 5344 5344 5344 5345 5345 5345 5347 5350 5352
5369 5368 5366 5365 5363 5361 5360 5358 5357 5355 5354 5352 5351 5350 5349 5348 5347 5346 5345 5343 5342 5341 5340 5338 5337 5336 5336 5337 5339 5338 5337 5337 5338 5338 5339 5340 5342 5345
5361 5361 5359 5358 5356 5355 5354 5352 5351 5349 5348 5346 5345 5343 5342 5341 5341 5340 5339 5337 5336 5335 5334 5333 5331 5330 5329 5330 5330 5332 5331 5331 5331 5332 5333 5335 5336 5339
5354 5353 5352 5351 5350 5349 5348 5347 5345 5344 5343 5341 5339 5338 5336 5335 5335 5334 5333 5332 5330 5329 5328 5327 5326 5326 5325 5324 5324 5325 5326 5326 5326 5326 5327 5328 5330 5332
5346 5346 5345 5344 5343 5343 5342 5341 5340 5338 5337 5336 5334 5333 5331 5330 5330 5329 5327 5326 5325 5324 5323 5322 5321 5320 5319 5319 5318 5319 5320 5322 5323 5323 5322 5322 5322 5323
5339 5339 5338 5337 5337 5337 5337 5336 5335 5334 5333 5331 5330 5328 5327 5325 5324 5323 5322 5321 5320 5319 5317 5316 5315 5314 5314 5313 5313 5314 5314 5315 5316 5317 5318 5319 5319 5319